Location: Lake Lucerne
(45.5315°N, 88.8489°W)
Time: 00:19:40
(UTC-05:00)

Envisat - Visible Passes

Search period start: 18 September 2024 00:00
Search period end: 28 September 2024 00:00
Orbit: 762 x 764 km, 98.3° (Epoch: 17 September)

Date Brightness Start Highest point End Pass type
(mag) Time Alt. Az. Time Alt. Az. Time Alt. Az.
18 Sep 3.3 03:56:26 10° NNE 04:01:29 63° ESE 04:02:24 53° SSE visible
18 Sep 4.5 05:36:26 10° NNW 05:39:57 19° WNW 05:42:32 14° W visible
19 Sep 4.5 03:19:25 10° NE 03:23:50 29° E 03:24:23 28° ESE visible
19 Sep 3.6 04:58:12 10° N 05:02:52 38° WNW 05:04:31 29° WSW visible
20 Sep 5.5 02:43:29 10° ENE 02:45:59 14° E 02:46:22 13° E visible
20 Sep 2.8 04:20:27 10° NNE 04:25:33 80° WNW 04:26:31 59° SSW visible
20 Sep 4.9 06:01:39 10° NNW 06:03:40 12° NW 06:05:42 10° W visible
21 Sep 3.7 03:43:07 10° NNE 03:48:02 48° E 03:48:30 46° ESE visible
21 Sep 4.2 05:22:40 10° N 05:26:42 24° WNW 05:28:38 19° W visible
22 Sep 4.9 03:06:21 10° NE 03:10:18 22° E 03:10:29 22° E visible
22 Sep 3.2 04:44:38 10° N 04:49:31 49° WNW 04:50:37 42° WSW visible
23 Sep 2.9 04:07:02 10° NNE 04:12:08 79° ESE 04:12:37 71° SSE visible
23 Sep 4.7 05:47:29 10° NNW 05:50:27 16° WNW 05:52:46 12° W visible
24 Sep 4.2 03:29:51 10° NNE 03:34:33 36° E 03:34:35 36° E visible
24 Sep 3.8 05:08:59 10° N 05:13:24 31° WNW 05:14:44 27° W visible
25 Sep 5.3 02:53:26 10° NE 02:56:34 17° E 02:56:34 17° E visible
25 Sep 2.9 04:31:07 10° N 04:36:09 64° WNW 04:36:42 59° WSW visible
26 Sep 3.3 03:53:39 10° NNE 03:58:41 60° E 03:58:41 60° E visible
26 Sep 4.4 05:33:34 10° NNW 05:37:11 20° WNW 05:38:49 17° W visible
27 Sep 4.7 03:16:40 10° NE 03:20:39 28° E 03:20:39 28° E visible
27 Sep 3.4 04:55:21 10° N 05:00:04 39° WNW 05:00:48 37° W visible
